Regional Weather Roundup
Issued by NWS

Home | Current Version | Previous Version | Graphics & Text | Print | Product List | Glossary On
Versions: 1 2 3 4 5 6 7 8 9 10 11 12 13 14 15 16 17 18 19 20 21 22 23 24 25 26 27 28 29 30 31 32 33 34 35 36 37 38 39 40 41 42 43 44 45 46 47 48 49 50
000
ASUS43 KBIS 251502
RWRND

NORTH DAKOTA REGIONAL WEATHER ROUNDUP
NATIONAL WEATHER SERVICE BISMARCK ND
1000 AM CDT SUN JUN 25 2017

NOTE: "FAIR" INDICATES FEW OR NO CLOUDS BELOW 12,000 FEET WITH NO
SIGNIFICANT WEATHER AND/OR OBSTRUCTIONS TO VISIBILITY.


NDZ001>003-009>011-017-251600-
NORTHWEST NORTH DAKOTA

CITY           SKY/WX    TMP DP  RH WIND       PRES   REMARKS
WILLISTON      CLOUDY    56  50  80 SW9       30.28F
MINOT          CLOUDY    59  46  62 W6        30.24F
MINOT AFB      CLOUDY    57  46  66 NW7       30.24S
$$

NDZ018>021-031>035-040>046-251600-
SOUTHWEST NORTH DAKOTA

CITY           SKY/WX    TMP DP  RH WIND       PRES   REMARKS
BISMARCK       CLOUDY    52  43  71 S5        30.31S
DICKINSON      CLOUDY    58  33  39 NE13      30.27F
GARRISON         N/A     50  48  93 N13       30.26F
HETTINGER ARPT SUNNY     66  34  30 SW18      30.29F
$$

NDZ004>008-012>016-024-026-027-054-251600-
NORTHEAST NORTH DAKOTA

CITY           SKY/WX    TMP DP  RH WIND       PRES   REMARKS
GRAND FORKS    PTSUNNY   61  47  59 NW10      30.23S
GRND FRKS AFB  PTSUNNY   60  46  60 N8        30.24S
DEVILS LAKE    PTSUNNY   56  45  66 N7        30.26S
$$

NDZ022-023-025-028>030-036>039-047>053-251600-
SOUTHEAST NORTH DAKOTA

CITY           SKY/WX    TMP DP  RH WIND       PRES   REMARKS
FARGO          MOSUNNY   60  42  51 NW13      30.24S
JAMESTOWN      MOSUNNY   60  45  57 NW7       30.26S
$$





USA.gov is the U.S. government's official web portal to all federal, state and local government web resources and services.